Regional Weather Roundup
Issued by NWS

Home | Current Version | Previous Version | Graphics & Text | Print | Product List | Glossary On
Versions: 1 2 3 4 5 6 7 8 9 10 11 12 13 14 15 16 17 18 19 20 21 22 23 24 25 26 27
000
ASUS45 KTFX 011310
RWRMT
MONTANA REGIONAL WEATHER ROUNDUP
NATIONAL WEATHER SERVICE GREAT FALLS MT
700 AM MDT SUN MAY 01 2016

NOTE: "FAIR" INDICATES FEW OR NO CLOUDS BELOW 12000 FEET WITH NO
SIGNIFICANT WEATHER AND/OR OBSTRUCTIONS TO VISIBILITY.

MTZ001>007-043-011400-
WEST OF THE DIVIDE

CITY           SKY/WX    TMP DP  RH WIND       PRES   REMARKS
KALISPELL      CLEAR     36  34  92 NW5       30.30R
MISSOULA       CLEAR     38  35  89 W3        30.30S
BUTTE          CLEAR     27  25  92 CALM      30.30R
MULLAN PASS    CLEAR     37  29  72 E8        30.27S WCI  31
ANACONDA         N/A     32  30  93 CALM      30.31R
DEER LODGE       N/A     32  27  80 CALM      30.32R
EUREKA           N/A     28  27  93 CALM      30.35R
HAMILTON         N/A     36  34  93 CALM      30.27R
LIBBY            N/A     34  30  86 CALM      30.33R
PLAINS           N/A     35  31  86 CALM      30.29R VSB 0
$$

MTZ008-052>055-011400-
SOUTHWEST MONTANA

CITY           SKY/WX    TMP DP  RH WIND       PRES   REMARKS
BOZEMAN        CLEAR     33  30  88 W3        30.31S
DILLON         CLEAR     32  27  81 E6        30.27S WCI  26
ENNIS          CLEAR     25  23  93 CALM      30.34S
THREE FORKS      N/A     30   7  38 CALM      30.27R
TWIN BRIDGES     N/A     36  27  70 N9        30.23R WCI  29
$$

MTZ009-010-012-014-046-048-049-054-011400-
EAST SLOPES AND CENTRAL MONTANA

CITY           SKY/WX    TMP DP  RH WIND       PRES   REMARKS
CUT BANK       CLEAR     32  30  92 NW6       30.33R WCI  26
GREAT FALLS    CLEAR     31  29  92 W5        30.33R
HELENA         CLEAR     35  31  85 W5        30.33R
CHOTEAU          N/A     36  34  93 CALM      30.34R
CONRAD           N/A     29  29 100 CALM      30.32R
$$

MTZ011-013-016-021-045-047-050-051-011400-
NORTH CENTRAL MONTANA

CITY           SKY/WX    TMP DP  RH WIND       PRES   REMARKS
HAVRE          MOCLDY    34  33  96 CALM      30.35R
LEWISTOWN      CLEAR     34  29  82 E3        30.34S
N BAR RANCH      N/A     34  30  86 W6        30.37S WCI  29
CHINOOK          N/A     36  36 100 CALM      30.36R
$$

MTZ017>020-022>027-061-062-011400-
NORTHEAST MONTANA

CITY           SKY/WX    TMP DP  RH WIND       PRES   REMARKS
GLASGOW        MOSUNNY   38  33  82 S3        30.34R
JORDAN           N/A     32  30  92 W5        30.34R
SIDNEY         SUNNY     36  30  80 CALM      30.36S
WOLF POINT     MOSUNNY   35  31  85 CALM      30.36R
PLENTYWOOD       N/A     39  27  60 CALM      30.35S
POPLAR           N/A     34  28  80 CALM      30.36S
SCOBEY           N/A     30  22  72 E1        30.31R
$$

MTZ028>42-056>058-011400-
SOUTHCENTRAL AND SOUTHEAST MONTANA

CITY           SKY/WX    TMP DP  RH WIND       PRES   REMARKS
BAKER          SUNNY     32  28  85 CALM      30.35R
BILLINGS       CLOUDY    40  35  83 SW7       30.34R
LIVINGSTON     CLOUDY    37  31  78 E6        30.32R
MILES CITY     SUNNY     37  33  85 W3        30.35R
EKALAKA          N/A     36  28  73 SE3       30.28
FORSYTH          N/A     37  36  93 CALM      30.35R
LAUREL           N/A     37  29  73 CALM      30.29R
ROUNDUP          N/A     40  32  73 CALM      30.23R
$$

REGIONAL REPORTS...DAKOTAS

CITY           SKY/WX    TMP DP  RH WIND       PRES   REMARKS
WILLISTON      SUNNY     38  31  76 CALM      30.35R
MINOT          SUNNY     43  30  60 CALM      30.34R
DICKINSON      MOSUNNY   35  30  82 CALM      30.31R
BEACH            N/A     32  32 100 CALM      30.38R
CROSBY           N/A     37  34  87 CALM      30.37S
WATFORD CITY     N/A     32  32 100 CALM      30.35S
BISMARCK       SUNNY     40  32  73 W3        30.34R
GRAND FORKS    MOSUNNY   40  31  70 N8        30.32R
FARGO          SUNNY     42  31  64 N3        30.30R
BUFFALO SD       N/A     35  28  75 NW6       30.27R WCI  30
RAPID CITY     PTSUNNY   38  30  73 NW13      30.30R WCI  30
$$

REGIONAL REPORTS...WYOMING/IDAHO/WASHINGTON

CITY           SKY/WX    TMP DP  RH WIND       PRES   REMARKS
GILLETTE       MOSUNNY   33  30  88 SW3       30.32S
SHERIDAN       CLOUDY    41  37  86 CALM      30.34R
BUFFALO WY       N/A    N/A N/A N/A MISG      30.34R
CODY           CLOUDY    39  34  81 CALM      30.32S
YELLOWSTONE LA   N/A     30  19  63 VRB3      30.31R
IDAHO FALLS    CLOUDY    32  29  88 N3        30.21R
SALMON         CLEAR     36  32  87 CALM      30.26R
BOISE          CLEAR     41  34  76 CALM      30.13R
SPOKANE        CLEAR     44  41  89 CALM      30.24F
$$

REGIONAL REPORTS...ALBERTA

CITY           SKY/WX    TMP DP  RH WIND       PRES   REMARKS
EDMONTON       CLEAR     45  32  61 SW8       30.21R
CALGARY        PTCLDY    37  28  70 S3        30.28S
LETHBRIDGE     PTCLDY    34  32  93 SW6       30.31R WCI  29
MEDICINE HAT   PTCLDY    37  36  93 S6        30.32R
WATERTON GATE    N/A     36  30  80 SW7         N/A  WCI  30
MILK RIVER       N/A     34  32  93 W6          N/A  WCI  29
ONEFOUR          N/A     39  32  75 E5          N/A
$$

REGIONAL REPORTS...SASKATCHEWAN

CITY           SKY/WX    TMP DP  RH WIND       PRES   REMARKS
SWIFT CURRENT  SUNNY     45  36  70 SW9       30.30S
REGINA         MOSUNNY   39  23  52 SE8       30.32S
SASKATOON      PTSUNNY   48  30  49 SW8       30.27S
CYPRESS HILLS    N/A     43  30  61 SW1         N/A
VAL MARIE        N/A     34  30  86 CALM        N/A
ROCKGLEN         N/A     43  30  61 SW3         N/A
$$




USA.gov is the U.S. government's official web portal to all federal, state and local government web resources and services.